This demonstration page uses our WeatherBlox Daily Observations layout. Learn more.

Left ArrowRight Arrow

39.08367, -84.50855

Hourly Observations for August 1, 2015

Temp ( °F °C ) Dew Point ( °F °C ) Humidity (%) Winds ( mph kmh ) Pressure ( in mb ) Visibility ( mi km ) Precip ( " mm )
12:53 am 00:53 Clear 73 22.8 62 16.7 69 69 SW 6 9 29.97 1015 10 16 N/A
1:53 am 01:53 Clear 69 20.6 62 16.7 78 78 WSW 6 9 29.97 1015 10 16 N/A
2:53 am 02:53 Clear 70 21.1 61 16.1 73 73 VRB 5 7 29.97 1015 10 16 N/A
3:53 am 03:53 Clear 66 18.9 62 16.7 87 87 N N/A 29.97 1015 10 16 N/A
4:53 am 04:53 Clear 69 20.6 60 15.6 73 73 N N/A 29.96 1015 10 16 N/A
5:53 am 05:53 Clear 62 16.7 61 16.1 96 96 N N/A 29.96 1015 10 16 N/A
6:53 am 06:53 Sunny 61 16.1 61 16.1 100 100 N N/A 29.97 1015 10 16 N/A
7:53 am 07:53 Sunny 64 17.8 63 17.2 96 96 N N/A 29.98 1015 10 16 N/A
8:53 am 08:53 Sunny 70 21.1 65 18.3 84 84 N N/A 29.99 1016 10 16 N/A
9:53 am 09:53 Sunny 76 24.4 64 17.8 67 67 W 3 6 30.00 1016 10 16 N/A
10:53 am 10:53 Sunny 79 26.1 60 15.6 52 52 VRB 6 9 30.00 1016 10 16 N/A
11:53 am 11:53 Sunny 81 27 54 12 39 39 N N/A 30.00 1016 10 16 N/A
12:53 pm 12:53 Mostly Sunny 81 27.2 55 12.8 41 41 VRB 5 7 29.99 1016 10 16 N/A
1:53 pm 13:53 Partly Cloudy 81 27.2 56 13.3 42 42 VRB 7 11 29.98 1015 10 16 N/A
2:53 pm 14:53 Sunny 83 28.3 55 12.8 38 38 NW 12 19 29.97 1015 10 16 N/A
3:53 pm 15:53 Partly Cloudy 83 28.3 57 13.9 41 41 NNW 9 15 29.96 1015 10 16 N/A
4:53 pm 16:53 Mostly Sunny 80 26.7 56 13.3 44 44 NW 6 9 29.96 1015 10 16 N/A
5:53 pm 17:53 Mostly Sunny 82 27.8 57 13.9 42 42 W 7 11 29.96 1015 10 16 N/A
6:53 pm 18:53 Sunny 81 27.2 56 13.3 42 42 W 10 17 29.96 1014 10 16 N/A
7:53 pm 19:53 Sunny 82 28 57 14 42 42 W 10 17 29.91 1013 10 16 N/A
8:53 pm 20:53 Clear 76 24.4 57 13.9 52 52 W 5 7 29.96 1015 10 16 N/A
9:53 pm 21:53 Clear 68 20 62 16.7 81 81 N N/A 29.97 1015 10 16 N/A
10:53 pm 22:53 Clear 66 18.9 62 16.7 87 87 N N/A 29.98 1015 10 16 N/A
11:53 pm 23:53 Clear 65 18.3 62 16.7 90 90 N N/A 29.98 1015 10 16 N/A

Powered by AerisWeather